Weather History for Patuxent River, MD

Change the Weather History Date:

Sunday, November 24, 2013

  Actual Average Record
Temperature  
Mean Temperature 30 °F -  
Max Temperature 34 °F 55 °F 73 °F (2014)
Min Temperature 26 °F 38 °F 19 °F (1989)
Degree Days  
Heating Degree Days 35    
Moisture  
Dew Point 5 °F    
Average Humidity 35    
Maximum Humidity 43    
Minimum Humidity 27    
Precipitation  
Precipitation 0.00 in - - ()
Sea Level Pressure  
Sea Level Pressure 30.38 in    
Wind  
Wind Speed 25 mph (NW)    
Max Wind Speed 38 mph    
Max Gust Speed 52 mph    
Visibility 10 miles    
Events      
Averages and records for this station are not official NWS values.
T = Trace of Precipitation, MM = Missing Value Source: NWS Daily Summary

Daily Weather History Graph

Daily Weather History Graph

Search for Another Location

Airport:

Trip Planner

Search our weather history database for the weather conditions in past years. The results will help you decide how hot, cold, wet, or windy it might be!

Date:

Astronomy

Nov. 24, 2013 Rise Set
Actual Time 6:56 AM EST 4:47 PM EST
Civil Twilight 6:28 AM EST 5:16 PM EST
Nautical Twilight 5:55 AM EST 5:48 PM EST
Astronomical Twilight 5:23 AM EST 6:20 PM EST
Moon 11:08 PM EST (11/24) 11:45 AM EST (11/24)
Length of Visible Light 10h 48m
Length of Day
9h 50m
Waning Gibbous, 61% of the Moon is Illuminated
Nov 24
Waning Gibbous
Nov 25
Last Quarter
Dec 2
New
Dec 9
First Quarter
Dec 17
Full

Hourly Weather History & Observations

Time (EST) Temp. Windchill Dew Point Humidity Pressure Visibility Wind Dir Wind Speed Gust Speed Precip Events Conditions
12:52 AM 34.0 °F 18.9 °F 12.9 °F 42% 30.15 in 10.0 mi NW 38.0 mph 51.8 mph N/A   Clear
1:52 AM 32.0 °F 17.9 °F 8.1 °F 37% 30.21 in 10.0 mi NNW 28.8 mph 38.0 mph N/A   Clear
2:52 AM 30.9 °F 17.8 °F 7.0 °F 37% 30.23 in 10.0 mi NNW 23.0 mph 29.9 mph N/A   Clear
3:52 AM 28.9 °F 15.8 °F 3.0 °F 33% 30.25 in 10.0 mi WNW 20.7 mph 33.4 mph N/A   Partly Cloudy
4:52 AM 28.9 °F 13.7 °F 1.0 °F 30% 30.27 in 10.0 mi NW 28.8 mph 36.8 mph N/A   Clear
5:52 AM 28.0 °F 14.6 °F 3.0 °F 34% 30.30 in 10.0 mi NNW 20.7 mph 39.1 mph N/A   Partly Cloudy
6:12 AM 26.6 °F 10.6 °F 3.2 °F 37% 30.32 in 10.0 mi NNW 28.8 mph 34.5 mph N/A   Partly Cloudy
6:52 AM 27.0 °F 11.3 °F 3.9 °F 37% 30.33 in 10.0 mi NNW 27.6 mph 40.3 mph 0.00 in   Scattered Clouds
7:52 AM 27.0 °F 12.5 °F 6.1 °F 41% 30.35 in 10.0 mi NW 23.0 mph 38.0 mph N/A   Scattered Clouds
8:52 AM 28.0 °F 13.0 °F 6.1 °F 39% 30.38 in 10.0 mi NW 26.5 mph 41.4 mph N/A   Scattered Clouds
9:52 AM 28.9 °F 14.0 °F 3.9 °F 35% 30.39 in 10.0 mi NW 27.6 mph 35.7 mph N/A   Mostly Cloudy
10:52 AM 32.0 °F 19.2 °F 5.0 °F 32% 30.40 in 10.0 mi NW 23.0 mph 31.1 mph N/A   Mostly Cloudy
11:52 AM 30.9 °F 18.4 °F 3.9 °F 32% 30.38 in 10.0 mi NNW 20.7 mph 34.5 mph N/A   Scattered Clouds
12:52 PM 33.1 °F 19.1 °F 1.9 °F 27% 30.37 in 10.0 mi NW 29.9 mph 41.4 mph N/A   Scattered Clouds
1:52 PM 33.1 °F 20.6 °F 3.0 °F 28% 30.38 in 10.0 mi NW 23.0 mph 36.8 mph N/A   Scattered Clouds
2:52 PM 33.1 °F 20.9 °F 3.0 °F 28% 30.39 in 10.0 mi NW 21.9 mph 32.2 mph N/A   Scattered Clouds
3:52 PM 32.0 °F 20.5 °F 1.9 °F 28% 30.41 in 10.0 mi NW 18.4 mph 27.6 mph N/A   Scattered Clouds
4:52 PM 30.0 °F 16.3 °F 3.9 °F 33% 30.42 in 10.0 mi NNW 24.2 mph 32.2 mph N/A   Partly Cloudy
5:52 PM 28.9 °F 15.8 °F 5.0 °F 36% 30.46 in 10.0 mi NW 20.7 mph 35.7 mph N/A   Partly Cloudy
6:52 PM 30.0 °F 19.5 °F 7.0 °F 38% 30.48 in 10.0 mi NW 13.8 mph 28.8 mph N/A   Clear
7:52 PM 28.0 °F 17.5 °F 5.0 °F 38% 30.50 in 10.0 mi WNW 12.7 mph - N/A   Clear
8:52 PM 28.0 °F 18.6 °F 5.0 °F 38% 30.51 in 10.0 mi WNW 10.4 mph 20.7 mph N/A   Clear
9:52 PM 27.0 °F 15.6 °F 5.0 °F 39% 30.52 in 10.0 mi WNW 13.8 mph 19.6 mph N/A   Clear
10:52 PM 26.1 °F 15.6 °F 5.0 °F 41% 30.52 in 10.0 mi West 11.5 mph - N/A   Clear
11:52 PM 26.1 °F 15.6 °F 6.1 °F 43% 30.52 in 10.0 mi WNW 11.5 mph - N/A   Clear